Location: Unspecified
(0.0000°N, 0.0000°E)
Time: 17:47:52
(UTC+00:00)

STARLINK 1041 - Pass Details

Date: 21 January 2020
Orbit: 549 x 551 km, 53.0° (Epoch: 17 January)

Event Time Altitude Azimuth Distance (km) Brightness Sun altitude
Rises 04:12:00 0° 183° (S) 2,713 7.4 -27.8°
Reaches altitude 10° 04:15:09 10° 158° (SSE) 1,817 6.8 -27.1°
Maximum altitude 04:17:24 14° 125° (SE) 1,558 6.8 -26.6°
Drops below altitude 10° 04:19:39 10° 92° (E) 1,813 7.1 -26.0°
Sets 04:22:45 0° 67° (ENE) 2,702 7.8 -25.3°
